Year,Month,Day,Hour,Minute,Value (Times are PST for temperature in C)
2018,02,04,00,00,8.80
2018,02,04,00,01,8.80
2018,02,04,00,02,8.70
2018,02,04,00,03,8.70
2018,02,04,00,04,8.70
2018,02,04,00,05,8.70
2018,02,04,00,06,8.70
2018,02,04,00,07,8.70
2018,02,04,00,08,8.70
2018,02,04,00,09,8.70
2018,02,04,00,10,8.70
2018,02,04,00,11,8.70
2018,02,04,00,12,8.70
2018,02,04,00,13,8.70
2018,02,04,00,14,8.70
2018,02,04,00,15,8.70
2018,02,04,00,16,8.70
2018,02,04,00,17,8.70
2018,02,04,00,18,8.70
2018,02,04,00,19,8.70
2018,02,04,00,20,8.70
2018,02,04,00,21,8.70
2018,02,04,00,22,8.70
2018,02,04,00,23,8.70
2018,02,04,00,24,8.70
2018,02,04,00,25,8.70
2018,02,04,00,26,8.70
2018,02,04,00,27,8.70
2018,02,04,00,28,8.70
2018,02,04,00,29,8.70
2018,02,04,00,30,8.70
2018,02,04,00,31,8.70
2018,02,04,00,32,8.60
2018,02,04,00,33,8.60
2018,02,04,00,34,8.60
2018,02,04,00,35,8.60
2018,02,04,00,36,8.60
2018,02,04,00,37,8.60
2018,02,04,00,38,8.60
2018,02,04,00,39,8.60
2018,02,04,00,40,8.60
2018,02,04,00,41,8.60
2018,02,04,00,42,8.60
2018,02,04,00,43,8.60
2018,02,04,00,44,8.60
2018,02,04,00,45,8.60
2018,02,04,00,46,8.60
2018,02,04,00,47,8.60
2018,02,04,00,48,8.60
2018,02,04,00,49,8.60
2018,02,04,00,50,8.60
2018,02,04,00,51,8.60
2018,02,04,00,52,8.60
2018,02,04,00,53,8.60
2018,02,04,00,54,8.60
2018,02,04,00,55,8.60
2018,02,04,00,56,8.60
2018,02,04,00,57,8.70
2018,02,04,00,58,8.70
2018,02,04,00,59,8.70
2018,02,04,01,00,8.70
2018,02,04,01,01,8.70
2018,02,04,01,02,8.70
2018,02,04,01,03,8.70
2018,02,04,01,04,8.70
2018,02,04,01,05,8.70
2018,02,04,01,06,8.70
2018,02,04,01,07,8.70
2018,02,04,01,08,8.70
2018,02,04,01,09,8.70
2018,02,04,01,10,8.70
2018,02,04,01,11,8.70
2018,02,04,01,12,8.70
2018,02,04,01,13,8.70
2018,02,04,01,14,8.70
2018,02,04,01,15,8.70
2018,02,04,01,16,8.70
2018,02,04,01,17,8.70
2018,02,04,01,18,8.70
2018,02,04,01,19,8.70
2018,02,04,01,20,8.70
2018,02,04,01,21,8.70
2018,02,04,01,22,8.70
2018,02,04,01,23,8.70
2018,02,04,01,24,8.70
2018,02,04,01,25,8.70
2018,02,04,01,26,8.70
2018,02,04,01,27,8.70
2018,02,04,01,28,8.70
2018,02,04,01,29,8.70
2018,02,04,01,30,8.70
2018,02,04,01,31,8.70
2018,02,04,01,32,8.70
2018,02,04,01,33,8.70
2018,02,04,01,34,8.70
2018,02,04,01,35,8.70
2018,02,04,01,36,8.70
2018,02,04,01,37,8.70
2018,02,04,01,38,8.70
2018,02,04,01,39,8.70
2018,02,04,01,40,8.70
2018,02,04,01,41,8.70
2018,02,04,01,42,8.70
2018,02,04,01,43,8.70
2018,02,04,01,44,8.70
2018,02,04,01,45,8.70
2018,02,04,01,46,8.70
2018,02,04,01,47,8.70
2018,02,04,01,48,8.70
2018,02,04,01,49,8.70
2018,02,04,01,50,8.70
2018,02,04,01,51,8.70
2018,02,04,01,52,8.70
2018,02,04,01,53,8.70
2018,02,04,01,54,8.70
2018,02,04,01,55,8.70
2018,02,04,01,56,8.70
2018,02,04,01,57,8.70
2018,02,04,01,58,8.70
2018,02,04,01,59,8.70
2018,02,04,02,00,8.70
2018,02,04,02,01,8.70
2018,02,04,02,02,8.70
2018,02,04,02,03,8.70
2018,02,04,02,04,8.70
2018,02,04,02,05,8.70
2018,02,04,02,06,8.70
2018,02,04,02,07,8.70
2018,02,04,02,08,8.70
2018,02,04,02,09,8.70
2018,02,04,02,10,8.70
2018,02,04,02,11,8.70
2018,02,04,02,12,8.70
2018,02,04,02,13,8.70
2018,02,04,02,14,8.70
2018,02,04,02,15,8.70
2018,02,04,02,16,8.70
2018,02,04,02,17,8.70
2018,02,04,02,18,8.70
2018,02,04,02,19,8.70
2018,02,04,02,20,8.70
2018,02,04,02,21,8.70
2018,02,04,02,22,8.70
2018,02,04,02,23,8.70
2018,02,04,02,24,8.70
2018,02,04,02,25,8.70
2018,02,04,02,26,8.70
2018,02,04,02,27,8.70
2018,02,04,02,28,8.70
2018,02,04,02,29,8.70
2018,02,04,02,30,8.70
2018,02,04,02,31,8.70
2018,02,04,02,32,8.70
2018,02,04,02,33,8.70
2018,02,04,02,34,8.70
2018,02,04,02,35,8.70
2018,02,04,02,36,8.70
2018,02,04,02,37,8.70
2018,02,04,02,38,8.70
2018,02,04,02,39,8.70
2018,02,04,02,40,8.70
2018,02,04,02,41,8.70
2018,02,04,02,42,8.70
2018,02,04,02,43,8.70
2018,02,04,02,44,8.70
2018,02,04,02,45,8.70
2018,02,04,02,46,8.80
2018,02,04,02,47,8.80
2018,02,04,02,48,8.80
2018,02,04,02,49,8.80
2018,02,04,02,50,8.80
2018,02,04,02,51,8.80
2018,02,04,02,52,8.80
2018,02,04,02,53,8.80
2018,02,04,02,54,8.80
2018,02,04,02,55,8.80
2018,02,04,02,56,8.80
2018,02,04,02,57,8.80
2018,02,04,02,58,8.80
2018,02,04,02,59,8.80
2018,02,04,03,00,8.80
2018,02,04,03,01,8.80
2018,02,04,03,02,8.80
2018,02,04,03,03,8.80
2018,02,04,03,04,8.80
2018,02,04,03,05,8.80
2018,02,04,03,06,8.80
2018,02,04,03,07,8.80
2018,02,04,03,08,8.80
2018,02,04,03,09,8.80
2018,02,04,03,10,8.80
2018,02,04,03,11,8.80
2018,02,04,03,12,8.80
2018,02,04,03,13,8.80
2018,02,04,03,14,8.80
2018,02,04,03,15,8.80
2018,02,04,03,16,8.80
2018,02,04,03,17,8.80
2018,02,04,03,18,8.80
2018,02,04,03,19,8.80
2018,02,04,03,20,8.80
2018,02,04,03,21,8.90
2018,02,04,03,22,8.90
2018,02,04,03,23,8.90
2018,02,04,03,24,8.80
2018,02,04,03,25,8.80
2018,02,04,03,26,8.80
2018,02,04,03,27,8.80
2018,02,04,03,28,8.80
2018,02,04,03,29,8.80
2018,02,04,03,30,8.80
2018,02,04,03,31,8.80
2018,02,04,03,32,8.80
2018,02,04,03,33,8.80
2018,02,04,03,34,8.80
2018,02,04,03,35,8.80
2018,02,04,03,36,8.80
2018,02,04,03,37,8.80
2018,02,04,03,38,8.80
2018,02,04,03,39,8.80
2018,02,04,03,40,8.80
2018,02,04,03,41,8.80
2018,02,04,03,42,8.80
2018,02,04,03,43,8.80
2018,02,04,03,44,8.80
2018,02,04,03,45,8.80
2018,02,04,03,46,8.80
2018,02,04,03,47,8.80
2018,02,04,03,48,8.80
2018,02,04,03,49,8.80
2018,02,04,03,50,8.80
2018,02,04,03,51,8.80
2018,02,04,03,52,8.80
2018,02,04,03,53,8.80
2018,02,04,03,54,8.80
2018,02,04,03,55,8.80
2018,02,04,03,56,8.80
2018,02,04,03,57,8.80
2018,02,04,03,58,8.80
2018,02,04,03,59,8.80
2018,02,04,04,00,8.80
2018,02,04,04,01,8.80
2018,02,04,04,02,8.80
2018,02,04,04,03,8.80
2018,02,04,04,04,8.80
2018,02,04,04,05,8.80
2018,02,04,04,06,8.80
2018,02,04,04,07,8.80
2018,02,04,04,08,8.80
2018,02,04,04,09,8.80
2018,02,04,04,10,8.80
2018,02,04,04,11,8.80
2018,02,04,04,12,8.80
2018,02,04,04,13,8.80
2018,02,04,04,14,8.80
2018,02,04,04,15,8.80
2018,02,04,04,16,8.80
2018,02,04,04,17,8.80
2018,02,04,04,18,8.80
2018,02,04,04,19,8.80
2018,02,04,04,20,8.80
2018,02,04,04,21,8.80
2018,02,04,04,22,8.80
2018,02,04,04,23,8.80
2018,02,04,04,24,8.80
2018,02,04,04,25,8.80
2018,02,04,04,26,8.80
2018,02,04,04,27,8.80
2018,02,04,04,28,8.80
2018,02,04,04,29,8.80
2018,02,04,04,30,8.80
2018,02,04,04,31,8.70
2018,02,04,04,32,8.70
2018,02,04,04,33,8.70
2018,02,04,04,34,8.70
2018,02,04,04,35,8.70
2018,02,04,04,36,8.70
2018,02,04,04,37,8.70
2018,02,04,04,38,8.60
2018,02,04,04,39,8.60
2018,02,04,04,40,8.60
2018,02,04,04,41,8.60
2018,02,04,04,42,8.60
2018,02,04,04,43,8.60
2018,02,04,04,44,8.70
2018,02,04,04,45,8.80
2018,02,04,04,46,8.80
2018,02,04,04,47,8.80
2018,02,04,04,48,8.90
2018,02,04,04,49,8.90
2018,02,04,04,50,9.00
2018,02,04,04,51,9.00
2018,02,04,04,52,9.00
2018,02,04,04,53,9.10
2018,02,04,04,54,9.10
2018,02,04,04,55,9.10
2018,02,04,04,56,9.20
2018,02,04,04,57,9.20
2018,02,04,04,58,9.20
2018,02,04,04,59,9.20
2018,02,04,05,00,9.20
2018,02,04,05,01,9.20
2018,02,04,05,02,9.20
2018,02,04,05,03,9.20
2018,02,04,05,04,9.20
2018,02,04,05,05,9.20
2018,02,04,05,06,9.20
2018,02,04,05,07,9.20
2018,02,04,05,08,9.20
2018,02,04,05,09,9.20
2018,02,04,05,10,9.20
2018,02,04,05,11,9.20
2018,02,04,05,12,9.20
2018,02,04,05,13,9.20
2018,02,04,05,14,9.20
2018,02,04,05,15,9.20
2018,02,04,05,16,9.20
2018,02,04,05,17,9.20
2018,02,04,05,18,9.20
2018,02,04,05,19,9.20
2018,02,04,05,20,9.20
2018,02,04,05,21,9.20
2018,02,04,05,22,9.20
2018,02,04,05,23,9.20
2018,02,04,05,24,9.20
2018,02,04,05,25,9.20
2018,02,04,05,26,9.20
2018,02,04,05,27,9.10
2018,02,04,05,28,9.20
2018,02,04,05,29,9.20
2018,02,04,05,30,9.20
2018,02,04,05,31,9.20
2018,02,04,05,32,9.20
2018,02,04,05,33,9.20
2018,02,04,05,34,9.20
2018,02,04,05,35,9.20
2018,02,04,05,36,9.20
2018,02,04,05,37,9.20
2018,02,04,05,38,9.20
2018,02,04,05,39,9.20
2018,02,04,05,40,9.20
2018,02,04,05,41,9.20
2018,02,04,05,42,9.10
2018,02,04,05,43,9.10
2018,02,04,05,44,9.10
2018,02,04,05,45,9.10
2018,02,04,05,46,9.10
2018,02,04,05,47,9.20
2018,02,04,05,48,9.10
2018,02,04,05,49,9.10
2018,02,04,05,50,9.10
2018,02,04,05,51,9.10
2018,02,04,05,52,9.10
2018,02,04,05,53,9.10
2018,02,04,05,54,9.10
2018,02,04,05,55,9.10
2018,02,04,05,56,9.10
2018,02,04,05,57,9.00
2018,02,04,05,58,9.00
2018,02,04,05,59,8.90
2018,02,04,06,00,8.90
2018,02,04,06,01,8.90
2018,02,04,06,02,8.90
2018,02,04,06,03,8.90
2018,02,04,06,04,8.80
2018,02,04,06,05,8.80
2018,02,04,06,06,8.80
2018,02,04,06,07,8.80
2018,02,04,06,08,8.80
2018,02,04,06,09,8.70
2018,02,04,06,10,8.70
2018,02,04,06,11,8.70
2018,02,04,06,12,8.70
2018,02,04,06,13,8.70
2018,02,04,06,14,8.70
2018,02,04,06,15,8.60
2018,02,04,06,16,8.60
2018,02,04,06,17,8.60
2018,02,04,06,18,8.60
2018,02,04,06,19,8.60
2018,02,04,06,20,8.60
2018,02,04,06,21,8.60
2018,02,04,06,22,8.60
2018,02,04,06,23,8.60
2018,02,04,06,24,8.60
2018,02,04,06,25,8.60
2018,02,04,09,14,11.30
2018,02,04,09,15,11.30
2018,02,04,09,16,11.30
2018,02,04,09,17,11.30
2018,02,04,09,18,11.30
2018,02,04,09,19,11.30
2018,02,04,09,20,11.30
2018,02,04,09,21,11.30
2018,02,04,09,22,11.30
2018,02,04,09,23,11.30
2018,02,04,09,24,11.30
2018,02,04,09,25,11.30
2018,02,04,09,26,11.30
2018,02,04,09,27,11.30
2018,02,04,09,28,11.30
2018,02,04,09,29,11.20
2018,02,04,09,30,11.20
2018,02,04,09,31,11.20
2018,02,04,09,32,11.30
2018,02,04,09,33,11.30
2018,02,04,09,34,11.20
2018,02,04,09,35,11.20
2018,02,04,09,36,11.20
2018,02,04,09,37,11.20
2018,02,04,09,38,11.20
2018,02,04,09,39,11.30
2018,02,04,09,40,11.30
2018,02,04,09,41,11.30
2018,02,04,09,42,11.30
2018,02,04,09,43,11.30
2018,02,04,09,44,11.30
2018,02,04,09,45,11.30
2018,02,04,09,46,11.30
2018,02,04,09,47,11.20
2018,02,04,09,48,11.20
2018,02,04,09,49,11.20
2018,02,04,09,50,11.20
2018,02,04,09,51,11.20
2018,02,04,09,52,11.10
2018,02,04,09,53,11.10
2018,02,04,09,54,11.10
2018,02,04,09,55,11.10
2018,02,04,09,56,11.00
2018,02,04,09,57,11.00
2018,02,04,09,58,11.00
2018,02,04,09,59,11.00
2018,02,04,10,00,10.90
2018,02,04,10,01,10.90
2018,02,04,10,02,10.90
2018,02,04,10,03,10.90
2018,02,04,10,04,10.90
2018,02,04,10,05,10.80
2018,02,04,10,06,10.80
2018,02,04,10,07,10.80
2018,02,04,10,08,10.80
2018,02,04,10,09,10.80
2018,02,04,10,10,10.80
2018,02,04,10,11,10.80
2018,02,04,10,12,10.80
2018,02,04,10,13,10.80
2018,02,04,10,14,10.80
2018,02,04,10,15,10.90
2018,02,04,10,16,10.90
2018,02,04,10,17,10.90
2018,02,04,10,18,10.90
2018,02,04,10,19,11.00
2018,02,04,10,20,11.00
2018,02,04,10,21,11.00
2018,02,04,10,22,11.00
2018,02,04,10,23,11.00
2018,02,04,10,24,11.00
2018,02,04,10,25,11.00
2018,02,04,10,26,11.00
2018,02,04,10,27,11.00
2018,02,04,10,28,11.10
2018,02,04,10,29,11.10
2018,02,04,10,30,11.10
2018,02,04,10,31,11.10
2018,02,04,10,32,11.10
2018,02,04,10,33,11.10
2018,02,04,10,34,11.10
2018,02,04,10,35,11.10
2018,02,04,10,36,11.00
2018,02,04,10,37,11.00
2018,02,04,10,38,11.00
2018,02,04,10,39,11.00
2018,02,04,10,40,11.00
2018,02,04,10,41,11.00
2018,02,04,10,42,11.00
2018,02,04,10,43,10.90
2018,02,04,10,44,10.90
2018,02,04,10,45,10.90
2018,02,04,10,46,10.90
2018,02,04,10,47,10.90
2018,02,04,10,48,11.00
2018,02,04,10,49,11.10
2018,02,04,10,50,11.10
2018,02,04,10,51,11.20
2018,02,04,10,52,11.30
2018,02,04,10,53,11.30
2018,02,04,10,54,11.30
2018,02,04,10,55,11.40
2018,02,04,10,56,11.40
2018,02,04,10,57,11.40
2018,02,04,10,58,11.40
2018,02,04,10,59,11.50
2018,02,04,11,00,11.50
2018,02,04,11,01,11.60
2018,02,04,11,02,11.60
2018,02,04,11,03,11.60
2018,02,04,11,04,11.60
2018,02,04,11,05,11.60
2018,02,04,11,06,11.60
2018,02,04,11,07,11.70
2018,02,04,11,08,11.70
2018,02,04,11,09,11.70
2018,02,04,11,10,11.80
2018,02,04,11,11,11.80
2018,02,04,11,12,11.80
2018,02,04,11,13,11.80
2018,02,04,11,14,11.80
2018,02,04,11,15,11.80
2018,02,04,11,16,11.80
2018,02,04,11,17,11.80
2018,02,04,11,18,11.80
2018,02,04,11,19,11.80
2018,02,04,11,20,11.80
2018,02,04,11,21,11.80
2018,02,04,11,22,11.80
2018,02,04,11,23,11.80
2018,02,04,11,24,11.80
2018,02,04,11,25,11.80
2018,02,04,11,26,11.80
2018,02,04,11,27,11.80
2018,02,04,11,28,11.80
2018,02,04,11,29,11.70
2018,02,04,11,30,11.70
2018,02,04,11,31,11.70
2018,02,04,11,32,11.70
2018,02,04,11,33,11.70
2018,02,04,11,34,11.70
2018,02,04,11,35,11.70
2018,02,04,11,36,11.70
2018,02,04,11,37,11.70
2018,02,04,11,38,11.70
2018,02,04,11,39,11.70
2018,02,04,11,40,11.80
2018,02,04,11,41,11.80
2018,02,04,11,42,11.90
2018,02,04,11,43,12.00
2018,02,04,11,44,12.00
2018,02,04,11,45,12.20
2018,02,04,11,46,12.30
2018,02,04,11,47,12.40
2018,02,04,11,48,12.50
2018,02,04,11,49,12.60
2018,02,04,11,50,12.60
2018,02,04,11,51,12.70
2018,02,04,11,52,12.70
2018,02,04,11,53,12.80
2018,02,04,11,54,12.80
2018,02,04,11,55,12.90
2018,02,04,11,56,12.90
2018,02,04,11,57,12.90
2018,02,04,11,58,12.90
2018,02,04,11,59,12.90
2018,02,04,12,00,12.90
2018,02,04,12,01,12.80
2018,02,04,12,02,12.90
2018,02,04,12,03,12.90
2018,02,04,12,04,12.90
2018,02,04,12,05,12.90
2018,02,04,12,06,12.90
2018,02,04,12,07,12.90
2018,02,04,12,08,12.90
2018,02,04,12,09,12.80
2018,02,04,12,10,12.80
2018,02,04,12,11,12.70
2018,02,04,12,12,12.70
2018,02,04,12,13,12.60
2018,02,04,12,14,12.60
2018,02,04,12,15,12.50
2018,02,04,12,16,12.50
2018,02,04,12,17,12.40
2018,02,04,12,18,12.40
2018,02,04,12,19,12.40
2018,02,04,12,20,12.30
2018,02,04,12,21,12.30
2018,02,04,12,22,12.30
2018,02,04,12,23,12.30
2018,02,04,12,24,12.40
2018,02,04,12,25,12.40
2018,02,04,12,26,12.40
2018,02,04,12,27,12.50
2018,02,04,12,28,12.50
2018,02,04,12,29,12.50
2018,02,04,12,30,12.50
2018,02,04,12,31,12.50
2018,02,04,12,32,12.50
2018,02,04,12,33,12.50
2018,02,04,12,34,12.50
2018,02,04,12,35,12.60
2018,02,04,12,36,12.60
2018,02,04,12,37,12.60
2018,02,04,12,38,12.70
2018,02,04,12,39,12.80
2018,02,04,12,40,12.80
2018,02,04,12,41,12.80
2018,02,04,12,42,12.80
2018,02,04,12,43,12.80
2018,02,04,12,44,12.80
2018,02,04,12,45,12.80
2018,02,04,12,46,12.90
2018,02,04,12,47,12.90
2018,02,04,12,48,12.90
2018,02,04,12,49,12.90
2018,02,04,12,50,12.80
2018,02,04,12,51,12.80
2018,02,04,12,52,12.80
2018,02,04,12,53,12.80
2018,02,04,12,54,12.80
2018,02,04,12,55,12.90
2018,02,04,12,56,12.90
2018,02,04,12,57,12.90
2018,02,04,12,58,12.90
2018,02,04,12,59,12.80
2018,02,04,13,00,12.80
2018,02,04,13,01,12.80
2018,02,04,13,02,12.80
2018,02,04,13,03,12.70
2018,02,04,13,04,12.70
2018,02,04,13,05,12.70
2018,02,04,13,06,12.70
2018,02,04,13,07,12.60
2018,02,04,13,08,12.60
2018,02,04,13,09,12.60
2018,02,04,13,10,12.60
2018,02,04,13,11,12.60
2018,02,04,13,12,12.60
2018,02,04,13,13,12.60
2018,02,04,13,14,12.60
2018,02,04,13,15,12.70
2018,02,04,13,16,12.70
2018,02,04,13,17,12.70
2018,02,04,13,18,12.70
2018,02,04,13,19,12.70
2018,02,04,13,20,12.70
2018,02,04,13,21,12.60
2018,02,04,13,22,12.60
2018,02,04,13,23,12.60
2018,02,04,13,24,12.60
2018,02,04,13,25,12.60
2018,02,04,13,26,12.60
2018,02,04,13,27,12.60
2018,02,04,13,28,12.60
2018,02,04,13,29,12.60
2018,02,04,13,30,12.60
2018,02,04,13,31,12.60
2018,02,04,13,32,12.60
2018,02,04,13,33,12.60
2018,02,04,13,34,12.60
2018,02,04,13,35,12.60
2018,02,04,13,36,12.60
2018,02,04,13,37,12.60
2018,02,04,13,38,12.60
2018,02,04,13,39,12.50
2018,02,04,13,40,12.50
2018,02,04,13,41,12.50
2018,02,04,13,42,12.50
2018,02,04,13,43,12.40
2018,02,04,13,44,12.40
2018,02,04,13,45,12.40
2018,02,04,13,46,12.40
2018,02,04,13,47,12.40
2018,02,04,13,48,12.40
2018,02,04,13,49,12.40
2018,02,04,13,50,12.40
2018,02,04,13,51,12.40
2018,02,04,13,52,12.40
2018,02,04,13,53,12.40
2018,02,04,13,54,12.40
2018,02,04,13,55,12.40
2018,02,04,13,56,12.40
2018,02,04,13,57,12.40
2018,02,04,13,58,12.40
2018,02,04,13,59,12.40
2018,02,04,14,00,12.40
2018,02,04,14,01,12.40
2018,02,04,14,02,12.50
2018,02,04,14,03,12.50
2018,02,04,14,04,12.60
2018,02,04,14,05,12.60
2018,02,04,14,06,12.70
2018,02,04,14,07,12.80
2018,02,04,14,08,12.80
2018,02,04,14,09,12.80
2018,02,04,14,10,12.80
2018,02,04,14,11,12.80
2018,02,04,14,12,12.90
2018,02,04,14,13,12.80
2018,02,04,14,14,12.80
2018,02,04,14,15,12.80
2018,02,04,14,16,12.80
2018,02,04,14,17,12.80
2018,02,04,14,18,12.80
2018,02,04,14,19,12.80
2018,02,04,14,20,12.80
2018,02,04,14,21,12.80
2018,02,04,14,22,12.80
2018,02,04,14,23,12.80
2018,02,04,14,24,12.80
2018,02,04,14,25,12.80
2018,02,04,14,26,12.80
2018,02,04,14,27,12.80
2018,02,04,14,28,12.80
2018,02,04,14,29,12.80
2018,02,04,14,30,12.80
2018,02,04,14,31,12.80
2018,02,04,14,32,12.80
2018,02,04,14,33,12.80
2018,02,04,14,34,12.80
2018,02,04,14,35,12.80
2018,02,04,14,36,12.80
2018,02,04,14,37,12.80
2018,02,04,14,38,12.80
2018,02,04,14,39,12.90
2018,02,04,14,40,12.90
2018,02,04,14,41,12.90
2018,02,04,14,42,13.00
2018,02,04,14,43,13.00
2018,02,04,14,44,13.10
2018,02,04,14,45,13.10
2018,02,04,14,46,13.20
2018,02,04,14,47,13.20
2018,02,04,14,48,13.20
2018,02,04,14,49,13.20
2018,02,04,14,50,13.20
2018,02,04,14,51,13.20
2018,02,04,14,52,13.10
2018,02,04,14,53,13.10
2018,02,04,14,54,13.10
2018,02,04,14,55,13.10
2018,02,04,14,56,13.10
2018,02,04,14,57,13.10
2018,02,04,14,58,13.10
2018,02,04,14,59,13.10
2018,02,04,15,00,13.10
2018,02,04,15,01,13.20
2018,02,04,15,02,13.20
2018,02,04,15,03,13.20
2018,02,04,15,04,13.20
2018,02,04,15,05,13.20
2018,02,04,15,06,13.20
2018,02,04,15,07,13.10
2018,02,04,15,08,13.10
2018,02,04,15,09,13.10
2018,02,04,15,10,13.10
2018,02,04,15,11,13.20
2018,02,04,15,12,13.20
2018,02,04,15,13,13.10
2018,02,04,15,14,13.10
2018,02,04,15,15,13.10
2018,02,04,15,16,13.10
2018,02,04,15,17,13.20
2018,02,04,15,18,13.20
2018,02,04,15,19,13.20
2018,02,04,15,20,13.20
2018,02,04,15,21,13.20
2018,02,04,15,22,13.20
2018,02,04,15,23,13.10
2018,02,04,15,24,13.10
2018,02,04,15,25,13.10
2018,02,04,15,26,13.00
2018,02,04,15,27,13.00
2018,02,04,15,28,13.00
2018,02,04,15,29,13.00
2018,02,04,15,30,12.90
2018,02,04,15,31,12.90
2018,02,04,15,32,12.90
2018,02,04,15,33,12.90
2018,02,04,15,34,12.90
2018,02,04,15,35,12.90
2018,02,04,15,36,12.90
2018,02,04,15,37,12.90
2018,02,04,15,38,12.90
2018,02,04,15,39,12.80
2018,02,04,15,40,12.80
2018,02,04,15,41,12.80
2018,02,04,15,42,12.80
2018,02,04,15,43,12.80
2018,02,04,15,44,12.80
2018,02,04,15,45,12.90
2018,02,04,15,46,12.90
2018,02,04,15,47,12.90
2018,02,04,15,48,12.90
2018,02,04,15,49,13.00
2018,02,04,15,50,13.00
2018,02,04,15,51,12.90
2018,02,04,15,52,12.90
2018,02,04,15,53,12.90
2018,02,04,15,54,12.90
2018,02,04,15,55,12.90
2018,02,04,15,56,12.90
2018,02,04,15,57,12.90
2018,02,04,15,58,12.80
2018,02,04,15,59,12.80
2018,02,04,16,00,12.80
2018,02,04,16,01,12.80
2018,02,04,16,02,12.70
2018,02,04,16,03,12.70
2018,02,04,16,04,12.70
2018,02,04,16,05,12.60
2018,02,04,16,06,12.50
2018,02,04,16,07,12.50
2018,02,04,16,08,12.40
2018,02,04,16,09,12.30
2018,02,04,16,10,12.30
2018,02,04,16,11,12.20
2018,02,04,16,12,12.20
2018,02,04,16,13,12.10
2018,02,04,16,14,12.10
2018,02,04,16,15,12.10
2018,02,04,16,16,12.10
2018,02,04,16,17,12.10
2018,02,04,16,18,12.10
2018,02,04,16,19,12.10
2018,02,04,16,20,12.10
2018,02,04,16,21,12.10
2018,02,04,16,22,12.10
2018,02,04,16,23,12.10
2018,02,04,16,24,12.10
2018,02,04,16,25,12.00
2018,02,04,16,26,12.00
2018,02,04,16,27,12.00
2018,02,04,16,28,12.00
2018,02,04,16,29,11.90
2018,02,04,16,30,11.90
2018,02,04,16,31,11.90
2018,02,04,16,32,11.80
2018,02,04,16,33,11.80
2018,02,04,16,34,11.80
2018,02,04,16,35,11.80
2018,02,04,16,36,11.70
2018,02,04,16,37,11.70
2018,02,04,16,38,11.70
2018,02,04,16,39,11.70
2018,02,04,16,40,11.60
2018,02,04,16,41,11.60
2018,02,04,16,42,11.60
2018,02,04,16,43,11.60
2018,02,04,16,44,11.60
2018,02,04,16,45,11.60
2018,02,04,16,46,11.60
2018,02,04,16,47,11.60
2018,02,04,16,48,11.60
2018,02,04,16,49,11.60
2018,02,04,16,50,11.50
2018,02,04,16,51,11.50
2018,02,04,16,52,11.50
2018,02,04,16,53,11.50
2018,02,04,16,54,11.50
2018,02,04,16,55,11.40
2018,02,04,16,56,11.40
2018,02,04,16,57,11.40
2018,02,04,16,58,11.40
2018,02,04,16,59,11.40
2018,02,04,17,00,11.40
2018,02,04,17,01,11.40
2018,02,04,17,02,11.40
2018,02,04,17,03,11.30
2018,02,04,17,04,11.30
2018,02,04,17,05,11.30
2018,02,04,17,06,11.30
2018,02,04,17,07,11.30
2018,02,04,17,08,11.30
2018,02,04,17,09,11.30
2018,02,04,17,10,11.20
2018,02,04,17,11,11.20
2018,02,04,17,12,11.20
2018,02,04,17,13,11.20
2018,02,04,17,14,11.20
2018,02,04,17,15,11.10
2018,02,04,17,16,11.10
2018,02,04,17,17,11.10
2018,02,04,17,18,11.10
2018,02,04,17,19,11.10
2018,02,04,17,20,11.00
2018,02,04,17,21,11.00
2018,02,04,17,22,10.90
2018,02,04,17,23,10.90
2018,02,04,17,24,10.80
2018,02,04,17,25,10.80
2018,02,04,17,26,10.80
2018,02,04,17,27,10.80
2018,02,04,17,28,10.70
2018,02,04,17,29,10.70
2018,02,04,17,30,10.70
2018,02,04,17,31,10.70
2018,02,04,17,32,10.70
2018,02,04,17,33,10.60
2018,02,04,17,34,10.60
2018,02,04,17,35,10.60
2018,02,04,17,36,10.70
2018,02,04,17,37,10.60
2018,02,04,17,38,10.60
2018,02,04,17,39,10.60
2018,02,04,17,40,10.50
2018,02,04,17,41,10.50
2018,02,04,17,42,10.50
2018,02,04,17,43,10.50
2018,02,04,17,44,10.40
2018,02,04,17,45,10.40
2018,02,04,17,46,10.40
2018,02,04,17,47,10.40
2018,02,04,17,48,10.40
2018,02,04,17,49,10.40
2018,02,04,17,50,10.40
2018,02,04,17,51,10.40
2018,02,04,17,52,10.40
2018,02,04,17,53,10.40
2018,02,04,17,54,10.30
2018,02,04,17,55,10.30
2018,02,04,17,56,10.30
2018,02,04,17,57,10.30
2018,02,04,17,58,10.20
2018,02,04,17,59,10.20
2018,02,04,18,00,10.20
2018,02,04,18,01,10.20
2018,02,04,18,02,10.20
2018,02,04,18,03,10.20
2018,02,04,18,04,10.20
2018,02,04,18,05,10.30
2018,02,04,18,06,10.30
2018,02,04,18,07,10.30
2018,02,04,18,08,10.30
2018,02,04,18,09,10.30
2018,02,04,18,10,10.20
2018,02,04,18,11,10.20
2018,02,04,18,12,10.20
2018,02,04,18,13,10.20
2018,02,04,18,14,10.20
2018,02,04,18,15,10.10
2018,02,04,18,16,10.10
2018,02,04,18,17,10.10
2018,02,04,18,18,10.10
2018,02,04,18,19,10.00
2018,02,04,18,20,10.00
2018,02,04,18,21,9.90
2018,02,04,18,22,9.90
2018,02,04,18,23,9.80
2018,02,04,18,24,9.80
2018,02,04,18,25,9.80
2018,02,04,18,26,9.80
2018,02,04,18,27,9.80
2018,02,04,18,28,9.80
2018,02,04,18,29,9.80
2018,02,04,18,30,9.80
2018,02,04,18,31,9.80
2018,02,04,18,32,9.80
2018,02,04,18,33,9.70
2018,02,04,18,34,9.70
2018,02,04,18,35,9.70
2018,02,04,18,36,9.70
2018,02,04,18,37,9.80
2018,02,04,18,38,9.80
2018,02,04,18,39,9.80
2018,02,04,18,40,9.80
2018,02,04,18,41,9.80
2018,02,04,18,42,9.80
2018,02,04,18,43,9.80
2018,02,04,18,44,9.90
2018,02,04,18,45,9.90
2018,02,04,18,46,10.00
2018,02,04,18,47,10.00
2018,02,04,18,48,10.00
2018,02,04,18,49,10.00
2018,02,04,18,50,10.10
2018,02,04,18,51,10.10
2018,02,04,18,52,10.10
2018,02,04,18,53,10.20
2018,02,04,18,54,10.20
2018,02,04,18,55,10.20
2018,02,04,18,56,10.20
2018,02,04,18,57,10.20
2018,02,04,18,58,10.30
2018,02,04,18,59,10.30
2018,02,04,19,00,10.30
2018,02,04,19,01,10.30
2018,02,04,19,02,10.30
2018,02,04,19,03,10.30
2018,02,04,19,04,10.30
2018,02,04,19,05,10.30
2018,02,04,19,06,10.20
2018,02,04,19,07,10.20
2018,02,04,19,08,10.20
2018,02,04,19,09,10.20
2018,02,04,19,10,10.20
2018,02,04,19,11,10.20
2018,02,04,19,12,10.20
2018,02,04,19,13,10.20
2018,02,04,19,14,10.10
2018,02,04,19,15,10.10
2018,02,04,19,16,10.10
2018,02,04,19,17,10.10
2018,02,04,19,18,10.10
2018,02,04,19,19,10.10
2018,02,04,19,20,10.20
2018,02,04,19,21,10.20
2018,02,04,19,22,10.20
2018,02,04,19,23,10.20
2018,02,04,19,24,10.20
2018,02,04,19,25,10.30
2018,02,04,19,26,10.30
2018,02,04,19,27,10.30
2018,02,04,19,28,10.30
2018,02,04,19,29,10.30
2018,02,04,19,30,10.30
2018,02,04,19,31,10.30
2018,02,04,19,32,10.30
2018,02,04,19,33,10.30
2018,02,04,19,34,10.30
2018,02,04,19,35,10.20
2018,02,04,19,36,10.20
2018,02,04,19,37,10.20
2018,02,04,19,38,10.20
2018,02,04,19,39,10.20
2018,02,04,19,40,10.20
2018,02,04,19,41,10.20
2018,02,04,19,42,10.20
2018,02,04,19,43,10.20
2018,02,04,19,44,10.10
2018,02,04,19,45,10.10
2018,02,04,19,46,10.20
2018,02,04,19,47,10.20
2018,02,04,19,48,10.20
2018,02,04,19,49,10.20
2018,02,04,19,50,10.20
2018,02,04,19,51,10.10
2018,02,04,19,52,10.10
2018,02,04,19,53,10.10
2018,02,04,19,54,10.10
2018,02,04,19,55,10.10
2018,02,04,19,56,10.10
2018,02,04,19,57,10.10
2018,02,04,19,58,10.10
2018,02,04,19,59,10.10
2018,02,04,20,00,10.00
2018,02,04,20,01,10.00
2018,02,04,20,02,10.00
2018,02,04,20,03,10.00
2018,02,04,20,04,9.90
2018,02,04,20,05,9.90
2018,02,04,20,06,9.90
2018,02,04,20,07,9.80
2018,02,04,20,08,9.80
2018,02,04,20,09,9.90
2018,02,04,20,10,9.90
2018,02,04,20,11,9.90
2018,02,04,20,12,9.90
2018,02,04,20,13,9.90
2018,02,04,20,14,10.00
2018,02,04,20,15,10.00
2018,02,04,20,16,10.10
2018,02,04,20,17,10.10
2018,02,04,20,18,10.10
2018,02,04,20,19,10.10
2018,02,04,20,20,10.10
2018,02,04,20,21,10.10
2018,02,04,20,22,10.10
2018,02,04,20,23,10.10
2018,02,04,20,24,10.10
2018,02,04,20,25,10.10